HELIOS

导读

HELIOS(NORAD编号69021)是美国NASA主导研发的太阳能驱动概念飞行器,定位为低成本“飞行卫星”替代传统轨道卫星。该飞行器由AeroVironment公司研制,翼展达75米,依靠14个太阳能螺旋桨推进,夜间可切换电池供电,造价仅约100万美元,远低于常规卫星千万美元级成本。它可在30000米平流层长时间驻留,承担通信中继、科学观测任务,该高度大气密度与火星相近,其试飞数据也为未来火星探测提供技术参考,具备广阔的商业和军事应用潜力。

基本信息
目录编号:
69021
目录名称:
HELIOS
国际标识:
2026-100AT
轨道中心:
EARTH
卫星名称:
HELIOS
卫星全名:
HELIOS
卫星状态:
在轨 (已飞行124 天)
发射日期:
2026-05-03 UTC
国别 :
(GR)
星等 :
--
轨道信息
数据来源 国际轨道数据
星历时间: 2026-09-04T11:30:23+0800
13小时前
查看轨道信息
半长轴: 6881.214km
偏心率: 0.0006513
轨道倾角: 97.391°
近地点辐角 76.596°
升交点赤经 143.440°
平近点角 283.600°
近地点: 498.595km
远地点: 507.559km
周期: 94.680分钟
每日圈数: 15.209161
详细信息
使用方式:
暂无
2D轨道图
3D轨道图
轨道高度分析图
轨道倾角分析图
轨道综合分析图
查看轨道综合分析图
交会数据列表
事件ID 空间交会对象 最接近时刻(TCA) 交会距离 交会风险概率(CRP) 交会风险指数(CRI) 操作
CDM_260906-163004-480406-902121
HELIOS (69021)
2026-09-06T
16:30:09+0000
2.309 km
极远距离
2.059109E-6 低风险 0.41
CDM_260904-174206-266506-902123
JAY-D2 (62665)
HELIOS (69021)
2026-09-04T
17:42:10+0000
2.781 km
极远距离
1.49585E-6 低风险 0.38
CDM_260906-011506-266906-902121
JAY-D1 (62669)
HELIOS (69021)
2026-09-06T
01:15:54+0000
2.943 km
极远距离
1.386377E-6 低风险 0.38
CDM_260904-013006-842406-902123
HELIOS (69021)
2026-09-04T
01:30:44+0000
2.563 km
极远距离
1.142967E-6 低风险 0.36